TimeEST,TemperatureF,Dew PointF,Humidity,Sea Level PressureIn,VisibilityMPH,Wind Direction,Wind SpeedMPH,Gust SpeedMPH,PrecipitationIn,Events,Conditions,WindDirDegrees,DateUTC
12:54 AM,50.0,48.9,96,29.80,-9999.0,North,-9999.0,-,0.06,,Unknown,0,2012-12-05 05:54:00
1:54 AM,50.0,48.0,93,29.82,-9999.0,North,-9999.0,-,0.05,,Unknown,0,2012-12-05 06:54:00
2:54 AM,46.9,46.0,97,29.83,-9999.0,North,-9999.0,-,0.04,,Unknown,0,2012-12-05 07:54:00
3:54 AM,46.0,46.0,100,29.84,-9999.0,North,-9999.0,-,0.13,,Unknown,0,2012-12-05 08:54:00
4:54 AM,46.0,45.0,96,29.84,-9999.0,North,-9999.0,-,0.05,,Unknown,0,2012-12-05 09:54:00
5:54 AM,42.1,41.0,96,29.85,-9999.0,North,-9999.0,-,0.02,,Unknown,0,2012-12-05 10:54:00
6:54 AM,39.9,39.0,97,29.85,-9999.0,North,-9999.0,-,N/A,,Unknown,0,2012-12-05 11:54:00
7:54 AM,39.0,39.0,100,29.86,-9999.0,North,-9999.0,-,N/A,,Unknown,0,2012-12-05 12:54:00
9:54 AM,45.0,37.9,76,29.88,-9999.0,North,-9999.0,-,N/A,,Unknown,0,2012-12-05 14:54:00
10:54 AM,39.0,34.0,82,29.92,-9999.0,North,-9999.0,-,0.01,,Unknown,0,2012-12-05 15:54:00
11:54 AM,37.0,30.0,76,29.94,-9999.0,North,-9999.0,-,N/A,,Unknown,0,2012-12-05 16:54:00
12:54 PM,36.0,27.0,70,29.95,-9999.0,North,-9999.0,-,N/A,,Unknown,0,2012-12-05 17:54:00
1:54 PM,35.1,24.1,64,29.96,-9999.0,North,-9999.0,-,N/A,,Unknown,0,2012-12-05 18:54:00
2:54 PM,34.0,23.0,64,30.00,-9999.0,North,-9999.0,-,N/A,,Unknown,0,2012-12-05 19:54:00
3:54 PM,32.0,23.0,69,30.04,-9999.0,North,-9999.0,-,N/A,,Unknown,0,2012-12-05 20:54:00
4:54 PM,30.9,19.0,61,30.06,-9999.0,North,-9999.0,-,0.01,,Unknown,0,2012-12-05 21:54:00
5:54 PM,30.0,19.9,66,30.09,-9999.0,North,-9999.0,-,N/A,,Unknown,0,2012-12-05 22:54:00
6:54 PM,28.9,18.0,64,30.10,-9999.0,North,-9999.0,-,N/A,,Unknown,0,2012-12-05 23:54:00
7:54 PM,28.9,15.1,56,30.13,-9999.0,North,-9999.0,-,N/A,,Unknown,0,2012-12-06 00:54:00
8:54 PM,28.0,17.1,63,30.14,-9999.0,North,-9999.0,-,N/A,,Unknown,0,2012-12-06 01:54:00
9:54 PM,28.0,17.1,63,30.15,-9999.0,North,-9999.0,-,N/A,,Unknown,0,2012-12-06 02:54:00
10:54 PM,28.0,16.0,61,30.17,-9999.0,North,-9999.0,-,N/A,,Unknown,0,2012-12-06 03:54:00
11:54 PM,28.0,16.0,61,30.19,-9999.0,North,-9999.0,-,N/A,,Unknown,0,2012-12-06 04:54:00